Back to catalog

COSMOS 2004

AliveMilitaryPO
NORAD 19826·PAYLOAD·🇷🇺 Russia

Launched Feb 22, 1989 from Plesetsk Cosmodrome

Loading…

Next Passes (next 24 hours)

TLE

FreshSource: Space-Track

Epoch: Sep 14, 2026, 14:57 UTC

1 19826U 89017A   26257.62320432  .00000047  00000-0  35273-4 0  9990
2 19826  82.9520 217.4232 0030272   4.5111 169.5624 13.72561472880750

Track COSMOS 2004 in real time with AllMySat

Download on the App Store